AEL021 LFST-LFPO

Flight info

Callsign AEL021
Flight time 0h 50m
Altitude 18000
Route POGOL R11 RLP
Aircraft B738/M-SDE2E3FGHIRWXY/LB1

Departure

Time 2026-05-05 18:11
Airport Strasbourg Airport (LFST)

Arrival

Time 2026-05-05 19:02
Airport Paris-Orly Airport (LFPO)
Time Latitude Longitude Altitude Speed Heading
2026-05-05 17:29 48.54395 7.62823 511 ft 0 kts 319°
2026-05-05 18:02 48.54385 7.62837 511 ft 4 kts 319°
2026-05-05 18:02 48.54368 7.62858 511 ft 3 kts 319°
2026-05-05 18:03 48.54348 7.62882 511 ft 4 kts 334°
2026-05-05 18:03 48.54327 7.62887 511 ft 4 kts 40°
2026-05-05 18:03 48.54311 7.62860 511 ft 2 kts 49°
2026-05-05 18:03 48.54309 7.62858 511 ft 0 kts 49°
2026-05-05 18:06 48.54316 7.62869 511 ft 3 kts 49°
2026-05-05 18:06 48.54331 7.62894 511 ft 6 kts 47°
2026-05-05 18:06 48.54374 7.62968 511 ft 7 kts 50°
2026-05-05 18:06 48.54388 7.63036 511 ft 7 kts 97°
2026-05-05 18:07 48.54356 7.63104 511 ft 9 kts 137°
2026-05-05 18:07 48.54310 7.63178 511 ft 10 kts 117°
2026-05-05 18:07 48.54323 7.63271 511 ft 10 kts 54°
2026-05-05 18:07 48.54370 7.63352 511 ft 11 kts 48°
2026-05-05 18:08 48.54425 7.63446 511 ft 12 kts 48°
2026-05-05 18:08 48.54478 7.63536 511 ft 12 kts 48°
2026-05-05 18:08 48.54530 7.63626 511 ft 11 kts 48°
2026-05-05 18:08 48.54581 7.63713 511 ft 11 kts 48°
2026-05-05 18:09 48.54631 7.63798 511 ft 11 kts 50°
2026-05-05 18:09 48.54636 7.63900 511 ft 10 kts 121°
2026-05-05 18:09 48.54586 7.63971 511 ft 10 kts 139°
2026-05-05 18:09 48.54544 7.64020 510 ft 5 kts 164°
2026-05-05 18:10 48.54516 7.63996 510 ft 4 kts 226°
2026-05-05 18:10 48.54492 7.63956 509 ft 10 kts 228°
2026-05-05 18:10 48.54293 7.63616 510 ft 81 kts 229°
2026-05-05 18:10 48.53757 7.62696 510 ft 148 kts 229°
2026-05-05 18:11 48.53004 7.61396 935 ft 169 kts 229°
2026-05-05 18:11 48.52253 7.60076 1775 ft 166 kts 228°
2026-05-05 18:11 48.51482 7.58753 2620 ft 169 kts 226°
2026-05-05 18:11 48.50684 7.57506 3566 ft 164 kts 226°
2026-05-05 18:12 48.50094 7.56010 4278 ft 174 kts 255°
2026-05-05 18:12 48.49906 7.54115 4863 ft 188 kts 261°
2026-05-05 18:12 48.49747 7.52119 5433 ft 195 kts 261°
2026-05-05 18:12 48.49571 7.50078 6036 ft 201 kts 260°
2026-05-05 18:13 48.49333 7.48019 6778 ft 197 kts 254°
2026-05-05 18:13 48.48985 7.46053 7557 ft 191 kts 258°
2026-05-05 18:13 48.48797 7.44061 8142 ft 196 kts 260°
2026-05-05 18:13 48.48617 7.41988 8634 ft 202 kts 260°
2026-05-05 18:14 48.48416 7.39845 9159 ft 210 kts 259°
2026-05-05 18:14 48.48186 7.37581 9340 ft 232 kts 259°
2026-05-05 18:14 48.47919 7.35069 9599 ft 254 kts 259°
2026-05-05 18:14 48.47615 7.32328 10026 ft 270 kts 258°
2026-05-05 18:15 48.47281 7.29403 10203 ft 297 kts 258°
2026-05-05 18:15 48.46908 7.26214 10398 ft 321 kts 258°
2026-05-05 18:15 48.46511 7.22856 10865 ft 332 kts 258°
2026-05-05 18:15 48.46100 7.19396 11584 ft 337 kts 258°
2026-05-05 18:16 48.45676 7.15888 12391 ft 340 kts 258°
2026-05-05 18:16 48.45244 7.12359 13159 ft 344 kts 258°
2026-05-05 18:16 48.44806 7.08788 13873 ft 349 kts 258°
2026-05-05 18:16 48.44361 7.05170 14546 ft 353 kts 258°
2026-05-05 18:17 48.43910 7.01513 15217 ft 357 kts 258°
2026-05-05 18:17 48.43459 6.97857 15855 ft 362 kts 258°
2026-05-05 18:17 48.42993 6.94089 16525 ft 366 kts 258°
2026-05-05 18:17 48.42521 6.90281 17165 ft 371 kts 258°
2026-05-05 18:18 48.42048 6.86476 17756 ft 376 kts 258°
2026-05-05 18:18 48.41562 6.82570 17833 ft 386 kts 258°
2026-05-05 18:18 48.41057 6.78527 17848 ft 400 kts 258°
2026-05-05 18:18 48.40529 6.74319 17859 ft 413 kts 258°
2026-05-05 18:19 48.39987 6.70007 17855 ft 423 kts 258°
2026-05-05 18:19 48.39444 6.65686 17840 ft 424 kts 258°
2026-05-05 18:19 48.38897 6.61328 17833 ft 420 kts 258°
2026-05-05 18:19 48.38356 6.57017 17835 ft 418 kts 258°
2026-05-05 18:20 48.37813 6.52711 17838 ft 417 kts 258°
2026-05-05 18:20 48.37276 6.48469 17840 ft 417 kts 258°
2026-05-05 18:20 48.36731 6.44173 17841 ft 418 kts 258°
2026-05-05 18:20 48.36182 6.39862 17840 ft 419 kts 258°
2026-05-05 18:21 48.35632 6.35555 17840 ft 421 kts 257°
2026-05-05 18:21 48.35077 6.31218 17834 ft 421 kts 257°
2026-05-05 18:21 48.34519 6.26878 17836 ft 422 kts 257°
2026-05-05 18:21 48.33967 6.22591 17829 ft 422 kts 257°
2026-05-05 18:22 48.33408 6.18258 17831 ft 422 kts 257°
2026-05-05 18:22 48.32846 6.13925 17831 ft 422 kts 257°
2026-05-05 18:22 48.32229 6.09618 17825 ft 421 kts 252°
2026-05-05 18:22 48.31204 6.05521 17831 ft 419 kts 244°
2026-05-05 18:23 48.29784 6.01707 17826 ft 417 kts 234°
2026-05-05 18:23 48.28048 5.98220 17839 ft 416 kts 232°
2026-05-05 18:23 48.26299 5.94811 17831 ft 416 kts 232°
2026-05-05 18:23 48.24534 5.91373 17829 ft 416 kts 232°
2026-05-05 18:24 48.22768 5.87917 17831 ft 416 kts 232°
2026-05-05 18:24 48.21012 5.84466 17831 ft 416 kts 232°
2026-05-05 18:24 48.19253 5.80999 17831 ft 416 kts 232°
2026-05-05 18:24 48.17497 5.77533 17832 ft 416 kts 232°
2026-05-05 18:25 48.15749 5.74084 17833 ft 416 kts 232°
2026-05-05 18:25 48.14586 5.71789 17833 ft 416 kts 232°
2026-05-05 18:25 48.12261 5.67207 17835 ft 416 kts 232°
2026-05-05 18:25 48.10507 5.63758 17831 ft 416 kts 232°
2026-05-05 18:26 48.08752 5.60310 17832 ft 416 kts 232°
2026-05-05 18:26 48.07022 5.56916 17833 ft 415 kts 232°
2026-05-05 18:26 48.05268 5.53479 17832 ft 415 kts 232°
2026-05-05 18:26 48.03511 5.50040 17835 ft 415 kts 232°
2026-05-05 18:27 48.01745 5.46588 17834 ft 415 kts 232°
2026-05-05 18:27 48.00003 5.43188 17834 ft 415 kts 232°
2026-05-05 18:27 47.98240 5.39749 17830 ft 415 kts 232°
2026-05-05 18:27 47.96501 5.36361 17833 ft 415 kts 232°
2026-05-05 18:28 47.92973 5.29505 17829 ft 415 kts 232°
2026-05-05 18:28 47.91488 5.25805 17824 ft 417 kts 247°
2026-05-05 18:28 47.90773 5.21656 17829 ft 420 kts 262°
2026-05-05 18:29 47.90788 5.17284 17841 ft 422 kts 271°
2026-05-05 18:29 47.90983 5.12915 17829 ft 423 kts 272°
2026-05-05 18:29 47.91202 5.08531 17825 ft 423 kts 272°
2026-05-05 18:29 47.91415 5.04209 17823 ft 423 kts 272°
2026-05-05 18:30 47.91622 4.99817 17824 ft 423 kts 272°
2026-05-05 18:30 47.91817 4.95411 17827 ft 423 kts 271°
2026-05-05 18:30 47.92002 4.91042 17832 ft 423 kts 271°
2026-05-05 18:30 47.92178 4.86717 17823 ft 423 kts 271°
2026-05-05 18:31 47.92352 4.82341 17827 ft 423 kts 271°
2026-05-05 18:31 47.92525 4.77941 17823 ft 423 kts 271°
2026-05-05 18:31 47.92694 4.73555 17820 ft 423 kts 271°
2026-05-05 18:31 47.93006 4.69184 17814 ft 425 kts 279°
2026-05-05 18:32 47.93745 4.64959 17812 ft 427 kts 283°
2026-05-05 18:32 47.94583 4.60690 17587 ft 427 kts 284°
2026-05-05 18:32 47.95425 4.56458 17322 ft 423 kts 284°
2026-05-05 18:32 47.96247 4.52287 17054 ft 422 kts 284°
2026-05-05 18:33 47.97062 4.48088 16784 ft 420 kts 283°
2026-05-05 18:33 47.97862 4.43897 16532 ft 419 kts 283°
2026-05-05 18:33 47.98651 4.39716 16281 ft 417 kts 283°
2026-05-05 18:33 47.99431 4.35551 16019 ft 416 kts 283°
2026-05-05 18:34 48.00206 4.31396 15764 ft 413 kts 283°
2026-05-05 18:34 48.00967 4.27302 15506 ft 404 kts 283°
2026-05-05 18:34 48.01707 4.23318 15252 ft 401 kts 283°
2026-05-05 18:34 48.02451 4.19292 15005 ft 401 kts 283°
2026-05-05 18:35 48.03191 4.15283 14765 ft 400 kts 283°
2026-05-05 18:35 48.03930 4.11272 14511 ft 399 kts 283°
2026-05-05 18:35 48.04664 4.07278 14277 ft 398 kts 283°
2026-05-05 18:35 48.05395 4.03295 14041 ft 396 kts 283°
2026-05-05 18:36 48.05876 4.00666 13882 ft 395 kts 283°
2026-05-05 18:36 48.06836 3.95419 13562 ft 393 kts 283°
2026-05-05 18:36 48.07321 3.92758 13383 ft 392 kts 283°
2026-05-05 18:36 48.08027 3.88881 13119 ft 390 kts 283°
2026-05-05 18:37 48.08740 3.84961 12857 ft 388 kts 283°
2026-05-05 18:37 48.09446 3.81069 12628 ft 386 kts 283°
2026-05-05 18:37 48.10145 3.77203 12419 ft 383 kts 283°
2026-05-05 18:37 48.10838 3.73367 12209 ft 381 kts 283°
2026-05-05 18:38 48.11528 3.69537 12001 ft 379 kts 283°
2026-05-05 18:38 48.12204 3.65777 11802 ft 378 kts 283°
2026-05-05 18:38 48.12884 3.61985 11669 ft 375 kts 283°
2026-05-05 18:38 48.13560 3.58212 11543 ft 373 kts 283°
2026-05-05 18:39 48.14232 3.54451 11421 ft 373 kts 283°
2026-05-05 18:39 48.14901 3.50698 11294 ft 372 kts 283°
2026-05-05 18:39 48.15549 3.47057 11155 ft 359 kts 283°
2026-05-05 18:39 48.16178 3.43528 11024 ft 343 kts 282°
2026-05-05 18:40 48.16778 3.40149 10886 ft 329 kts 282°
2026-05-05 18:40 48.17354 3.36892 10752 ft 316 kts 282°
2026-05-05 18:40 48.17907 3.33755 10623 ft 305 kts 282°
2026-05-05 18:40 48.18433 3.30775 10489 ft 294 kts 282°
2026-05-05 18:41 48.18949 3.27843 10357 ft 285 kts 282°
2026-05-05 18:41 48.19441 3.25041 10229 ft 277 kts 282°
2026-05-05 18:41 48.19932 3.22257 10109 ft 275 kts 284°
2026-05-05 18:41 48.20796 3.19694 9981 ft 280 kts 305°
2026-05-05 18:42 48.22144 3.17517 9887 ft 284 kts 311°
2026-05-05 18:42 48.23523 3.15444 9830 ft 283 kts 311°
2026-05-05 18:42 48.24917 3.13343 9825 ft 282 kts 311°
2026-05-05 18:42 48.26301 3.11232 9814 ft 284 kts 311°
2026-05-05 18:43 48.27680 3.09111 9799 ft 284 kts 311°
2026-05-05 18:43 48.29036 3.07021 9809 ft 283 kts 311°
2026-05-05 18:43 48.30410 3.04898 9801 ft 281 kts 311°
2026-05-05 18:43 48.31763 3.02806 9728 ft 277 kts 311°
2026-05-05 18:44 48.33113 3.00715 9366 ft 279 kts 311°
2026-05-05 18:44 48.34462 2.98623 9019 ft 278 kts 311°
2026-05-05 18:44 48.35787 2.96569 8763 ft 274 kts 311°
2026-05-05 18:44 48.37108 2.94518 8499 ft 271 kts 311°
2026-05-05 18:45 48.38415 2.92488 8238 ft 268 kts 311°
2026-05-05 18:45 48.39706 2.90480 7981 ft 265 kts 312°
2026-05-05 18:45 48.40970 2.88516 7731 ft 263 kts 312°
2026-05-05 18:45 48.42240 2.86538 7483 ft 262 kts 312°
2026-05-05 18:46 48.43504 2.84567 7233 ft 260 kts 312°
2026-05-05 18:46 48.44754 2.82599 6985 ft 259 kts 308°
2026-05-05 18:46 48.45558 2.80218 6852 ft 257 kts 282°
2026-05-05 18:46 48.45774 2.77553 6843 ft 261 kts 272°
2026-05-05 18:47 48.45831 2.74820 6809 ft 259 kts 271°
2026-05-05 18:47 48.45880 2.72087 6800 ft 256 kts 271°
2026-05-05 18:47 48.45941 2.69404 6803 ft 257 kts 272°
2026-05-05 18:47 48.46010 2.66740 6812 ft 258 kts 272°
2026-05-05 18:48 48.46084 2.64019 6803 ft 259 kts 273°
2026-05-05 18:48 48.46188 2.61295 6798 ft 260 kts 274°
2026-05-05 18:48 48.46309 2.58569 6803 ft 260 kts 275°
2026-05-05 18:48 48.46424 2.55883 6807 ft 260 kts 274°
2026-05-05 18:49 48.46531 2.53157 6808 ft 261 kts 274°
2026-05-05 18:49 48.46632 2.50412 6806 ft 261 kts 274°
2026-05-05 18:49 48.46726 2.47683 6802 ft 259 kts 274°
2026-05-05 18:49 48.46812 2.45024 6765 ft 249 kts 274°
2026-05-05 18:50 48.46888 2.42440 6607 ft 243 kts 274°
2026-05-05 18:50 48.46956 2.39955 6484 ft 238 kts 274°
2026-05-05 18:50 48.47020 2.37471 6363 ft 237 kts 274°
2026-05-05 18:50 48.47084 2.34963 6164 ft 239 kts 274°
2026-05-05 18:51 48.47146 2.32457 6003 ft 239 kts 274°
2026-05-05 18:51 48.47208 2.29973 5814 ft 240 kts 274°
2026-05-05 18:51 48.47268 2.27459 5644 ft 240 kts 274°
2026-05-05 18:51 48.47325 2.24941 5458 ft 240 kts 274°
2026-05-05 18:52 48.47380 2.22419 5274 ft 240 kts 274°
2026-05-05 18:52 48.47433 2.19941 5102 ft 239 kts 274°
2026-05-05 18:52 48.47605 2.17476 4909 ft 235 kts 291°
2026-05-05 18:52 48.48308 2.15271 4768 ft 232 kts 301°
2026-05-05 18:53 48.49101 2.13139 4568 ft 233 kts 301°
2026-05-05 18:53 48.49899 2.11020 4399 ft 232 kts 302°
2026-05-05 18:53 48.50684 2.08934 4268 ft 229 kts 302°
2026-05-05 18:53 48.51463 2.06853 4097 ft 224 kts 302°
2026-05-05 18:54 48.52215 2.04831 4024 ft 218 kts 301°
2026-05-05 18:54 48.52963 2.02831 3991 ft 219 kts 302°
2026-05-05 18:54 48.53709 2.00828 3981 ft 217 kts 302°
2026-05-05 18:54 48.54438 1.98840 3992 ft 216 kts 302°
2026-05-05 18:55 48.55190 1.96918 3990 ft 215 kts 313°
2026-05-05 18:55 48.56398 1.95706 3995 ft 208 kts 348°
2026-05-05 18:55 48.57809 1.95798 3978 ft 206 kts 22°
2026-05-05 18:55 48.59055 1.96832 3992 ft 204 kts 36°
2026-05-05 18:56 48.59989 1.98462 4016 ft 208 kts 54°
2026-05-05 18:56 48.60791 2.00307 3996 ft 211 kts 56°
2026-05-05 18:56 48.61541 2.02177 4009 ft 201 kts 56°
2026-05-05 18:56 48.62229 2.03952 3979 ft 191 kts 58°
2026-05-05 18:57 48.62855 2.05671 3985 ft 188 kts 59°
2026-05-05 18:57 48.63477 2.07426 3925 ft 191 kts 59°
2026-05-05 18:57 48.64110 2.09230 3691 ft 196 kts 60°
2026-05-05 18:57 48.64746 2.11048 3432 ft 192 kts 60°
2026-05-05 18:58 48.65366 2.12818 3181 ft 188 kts 59°
2026-05-05 18:58 48.65964 2.14526 2938 ft 183 kts 59°
2026-05-05 18:58 48.66555 2.16211 2681 ft 179 kts 59°
2026-05-05 18:58 48.67127 2.17841 2433 ft 170 kts 59°
2026-05-05 18:59 48.67662 2.19367 2218 ft 157 kts 59°
2026-05-05 18:59 48.68162 2.20791 2033 ft 148 kts 58°
2026-05-05 18:59 48.68632 2.22129 1828 ft 141 kts 58°
2026-05-05 18:59 48.69091 2.23430 1628 ft 141 kts 58°
2026-05-05 19:00 48.69557 2.24754 1408 ft 144 kts 58°
2026-05-05 19:00 48.70025 2.26087 1210 ft 144 kts 59°
2026-05-05 19:00 48.70496 2.27425 1004 ft 144 kts 59°
2026-05-05 19:00 48.70965 2.28758 809 ft 145 kts 59°
2026-05-05 19:01 48.71434 2.30095 658 ft 142 kts 59°
2026-05-05 19:01 48.71904 2.31429 421 ft 144 kts 59°
2026-05-05 19:01 48.72372 2.32749 300 ft 138 kts 59°
2026-05-05 19:01 48.72751 2.33816 298 ft 87 kts 62°
2026-05-05 19:02 48.72944 2.34361 295 ft 43 kts 64°
2026-05-05 19:02 48.73010 2.34739 297 ft 30 kts 82°
2026-05-05 19:02 48.73031 2.34973 294 ft 14 kts 82°
2026-05-05 19:02 48.73041 2.35089 294 ft 9 kts 88°
2026-05-05 19:03 48.73029 2.35185 297 ft 8 kts 110°
2026-05-05 19:03 48.72997 2.35256 296 ft 8 kts 136°
2026-05-05 19:03 48.72954 2.35300 299 ft 7 kts 154°
2026-05-05 19:03 48.72914 2.35334 295 ft 7 kts 132°
2026-05-05 19:04 48.72893 2.35395 295 ft 6 kts 123°
2026-05-05 19:04 48.72856 2.35430 294 ft 6 kts 161°
2026-05-05 19:04 48.72814 2.35449 297 ft 6 kts 165°
2026-05-05 19:04 48.72774 2.35465 295 ft 6 kts 165°
2026-05-05 19:05 48.72747 2.35468 297 ft 3 kts 209°
2026-05-05 19:05 48.72742 2.35442 296 ft 2 kts 275°
2026-05-05 19:05 48.72749 2.35419 297 ft 2 kts 297°
2026-05-05 19:05 48.72756 2.35397 295 ft 2 kts 293°
2026-05-05 19:06 48.72761 2.35382 294 ft 1 kts 293°
2026-05-05 19:06 48.72762 2.35379 294 ft 0 kts 294°